Hillsdale Lake Weather Center

Moon Phase Calendar



Hillsdale Lake Water Level
Online Cameras

 


      

Current Conditions in Spring Hill
1/22/2022 3:32:44 AM

25°F
Feels Like 16
Clouds
Humidity
46%
Pressure
30.39"
Wind
8 mph (SSW)
Dew Point
9°F
UV Index
0/10 (Low)
Visibility
6 mi

Hourly Forecast

Date & Time Sat, Jan 22
3:00 AM
Sat, Jan 22
4:00 AM
Sat, Jan 22
5:00 AM
Sat, Jan 22
6:00 AM
Sat, Jan 22
7:00 AM
Sat, Jan 22
8:00 AM
Sat, Jan 22
9:00 AM
Sat, Jan 22
10:00 AM
Sat, Jan 22
11:00 AM
Sat, Jan 22
12:00 PM
Sat, Jan 22
1:00 PM
Sat, Jan 22
2:00 PM
Sat, Jan 22
3:00 PM
Sat, Jan 22
4:00 PM
Sat, Jan 22
5:00 PM
Sat, Jan 22
6:00 PM
Sat, Jan 22
7:00 PM
Sat, Jan 22
8:00 PM
Sat, Jan 22
9:00 PM
Sat, Jan 22
10:00 PM
Sat, Jan 22
11:00 PM
Sun, Jan 23
12:00 AM
Sun, Jan 23
1:00 AM
Sun, Jan 23
2:00 AM
Sun, Jan 23
3:00 AM
Sun, Jan 23
4:00 AM
Sun, Jan 23
5:00 AM
Sun, Jan 23
6:00 AM
Sun, Jan 23
7:00 AM
Sun, Jan 23
8:00 AM
Sun, Jan 23
9:00 AM
Sun, Jan 23
10:00 AM
Sun, Jan 23
11:00 AM
Sun, Jan 23
12:00 PM
Sun, Jan 23
1:00 PM
Sun, Jan 23
2:00 PM
Sun, Jan 23
3:00 PM
Sun, Jan 23
4:00 PM
Sun, Jan 23
5:00 PM
Sun, Jan 23
6:00 PM
Sun, Jan 23
7:00 PM
Sun, Jan 23
8:00 PM
Sun, Jan 23
9:00 PM
Sun, Jan 23
10:00 PM
Sun, Jan 23
11:00 PM
Mon, Jan 24
12:00 AM
Mon, Jan 24
1:00 AM
Mon, Jan 24
2:00 AM
Condition
Clouds

Clouds

Clouds

Clouds

Clouds

Clouds

Clouds

Clouds

Clouds

Clouds

Clear

Clear

Clear

Clear

Clear

Clouds

Clouds

Clouds

Clouds

Clouds

Clouds

Clouds

Clouds

Clouds

Clouds

Clouds

Clouds

Clouds

Clouds

Clouds

Clouds

Clouds

Clouds

Clouds

Clouds

Clouds

Clouds

Clouds

Clouds

Clouds

Clouds

Clear

Clear

Clear

Clear

Clear

Clouds

Clear
Temperature 24°F25°F25°F25°F24°F24°F28°F33°F38°F42°F44°F46°F46°F45°F40°F36°F35°F33°F32°F32°F33°F34°F35°F36°F37°F37°F35°F34°F33°F33°F37°F40°F40°F41°F41°F41°F41°F41°F38°F34°F33°F32°F31°F31°F31°F32°F32°F33°F
Feels Like 16°F16°F16°F16°F16°F16°F21°F26°F32°F37°F40°F42°F43°F42°F35°F30°F28°F26°F24°F24°F24°F25°F25°F27°F28°F28°F28°F26°F26°F26°F30°F32°F33°F33°F34°F35°F36°F36°F34°F30°F28°F26°F25°F24°F23°F23°F24°F24°F
Cloudiness 80%75%80%85%87%73%60%65%60%58%8%5%4%3%5%21%100%72%49%38%35%46%76%88%92%94%89%83%74%81%87%90%92%93%88%76%55%45%38%34%11%10%9%9%8%9%11%10%
Visibility 6 mi6 mi6 mi6 mi6 mi6 mi6 mi6 mi6 mi6 mi6 mi6 mi6 mi6 mi6 mi6 mi6 mi6 mi6 mi6 mi6 mi6 mi6 mi6 mi6 mi6 mi6 mi6 mi6 mi6 mi6 mi6 mi6 mi6 mi6 mi6 mi6 mi6 mi6 mi6 mi6 mi6 mi6 mi6 mi6 mi6 mi6 mi6 mi
Precipitation 0%0%0%0%0%0%0%0%0%0%0%0%0%0%0%0%0%0%0%0%0%0%0%0%0%0%0%0%0%0%0%0%0%0%0%0%0%0%0%0%0%0%0%0%0%0%0%0%
Humidity 45%46%44%44%45%48%43%40%40%40%40%40%40%44%54%60%61%65%67%67%65%64%63%61%60%60%65%70%74%76%69%65%66%64%59%55%53%53%59%65%68%70%72%75%77%81%86%90%
Dew Point 8°F9°F8°F8°F8°F9°F8°F11°F16°F19°F21°F22°F23°F24°F24°F23°F23°F22°F22°F22°F22°F23°F23°F24°F24°F24°F24°F25°F25°F26°F27°F29°F30°F29°F28°F26°F25°F25°F25°F24°F23°F23°F23°F24°F25°F26°F28°F30°F
Pressure 30.39"30.39"30.39"30.39"30.42"30.45"30.45"30.45"30.45"30.42"30.36"30.33"30.3"30.27"30.27"30.27"30.24"30.24"30.24"30.21"30.18"30.15"30.12"30.09"30.06"30.06"30.09"30.09"30.12"30.12"30.15"30.15"30.18"30.18"30.15"30.12"30.09"30.09"30.09"30.09"30.06"30.06"30.03"30.03"30"29.97"29.94"29.91"
Wind Speed 7.6 mph8.3 mph8.5 mph7.7 mph7.6 mph7.4 mph7.6 mph8.4 mph7.6 mph6.9 mph6.4 mph6.1 mph6.5 mph6.8 mph7 mph8.2 mph8.9 mph8.8 mph10.1 mph10.9 mph12.4 mph13 mph13.9 mph14.9 mph14.9 mph13.3 mph10 mph8.9 mph8.4 mph7.6 mph8.4 mph13 mph13.4 mph13 mph12.1 mph9.9 mph8.2 mph6.9 mph4.5 mph5.4 mph5.8 mph6.4 mph7.4 mph8.4 mph9.2 mph9.6 mph9.7 mph10.3 mph
Wind
Direction
223°
SW
225°
SW
232°
SW
228°
SW
233°
SW
244°
WSW
254°
WSW
273°
W
274°
W
272°
W
275°
W
259°
W
258°
WSW
231°
SW
219°
SW
217°
SW
214°
SW
210°
SSW
214°
SW
222°
SW
224°
SW
225°
SW
227°
SW
232°
SW
247°
WSW
264°
W
276°
W
286°
WNW
301°
WNW
314°
NW
338°
NNW
358°
N
357°
N
356°
N
356°
N
353°
N
352°
N
357°
N
17°
NNE
59°
ENE
94°
E
124°
SE
152°
SSE
165°
SSE
171°
S
179°
S
184°
S
193°
SSW

Daily Forecast

Date High Low Precip. Humidity
Today
Jan 22

Clouds
46 °F
23 °F
0%
40%
Sunday
Jan 23

Clouds
41 °F
31 °F
0%
64%
Monday
Jan 24

Clouds
54 °F
32 °F
0%
41%
Tuesday
Jan 25

Clouds
30 °F
20 °F
0%
31%
Wednesday
Jan 26

Clouds
40 °F
17 °F
0%
31%
Thursday
Jan 27

Snow
42 °F
30 °F
33%
51%
Friday
Jan 28

Clouds
47 °F
25 °F
0%
47%
Saturday
Jan 29

Clouds
58 °F
31 °F
0%
41%
Sunday
Jan 30

Clouds
41 °F
24 °F
0%
43%
Monday
Jan 31

Snow
31 °F
17 °F
28%
34%
Tuesday
Feb 1

Rain
43 °F
29 °F
39%
73%
Wednesday
Feb 2

Clear
39 °F
26 °F
0%
45%
Thursday
Feb 3

Clouds
47 °F
23 °F
0%
51%
Friday
Feb 4

Rain
57 °F
45 °F
100%
93%
Saturday
Feb 5

Rain
62 °F
55 °F
100%
87%
Sunday
Feb 6

Rain
61 °F
32 °F
100%
80%

Temperature 8-14 Day Outlook



Precipitation 8-14 Day Outlook




Quick Links
Hillsdale Lake News
Hillsdale Lake Photos
Hillsdale Lake Videos




About Us
Contact Us
Site Map
Search Site
Advertise With Us
   
Hillsdale.USLakes.info
THE HILLSDALE LAKE WEBSITE

Copyright 2022, Lakes Online
Privacy    |    Legal